�N����,����,�~����,�C��,���x,�C��,����,���ϕ���,�ő�u�ԕ���,�ő厞����,���˗�,�I�_���x,�n�����x,�ő啗���N��,DTYPE
"23/10/23","00:10",0.0,9.3,92.0,1018.7,296.4,1.5,2.2,320.4,0.00,8.1,15.7,"00:01:44",1
"23/10/23","00:20",0.0,9.2,92.3,1018.2,279.9,1.3,1.7,265.0,0.00,8.1,15.8,"00:14:48",1
"23/10/23","00:30",0.0,9.8,92.5,1018.5,286.7,1.7,2.4,273.1,0.00,8.7,15.7,"00:25:04",1
"23/10/23","00:40",0.0,9.7,92.5,1018.2,318.8,2.0,2.4,319.1,0.00,8.6,15.7,"00:38:40",1
"23/10/23","00:50",0.0,9.8,92.8,1018.2,309.8,1.8,2.5,331.2,0.00,8.7,15.5,"00:44:00",1
"23/10/23","01:00",0.0,9.7,92.9,1018.5,306.9,1.6,2.2,314.5,0.00,8.6,15.6,"00:57:04",1
"23/10/23","01:10",0.0,9.5,93.1,1018.5,312.0,1.2,2.5,315.5,0.00,8.5,15.6,"01:08:52",1
"23/10/23","01:20",0.0,9.2,93.2,1018.2,311.2,1.7,2.2,316.7,0.00,8.2,15.6,"01:11:20",1
"23/10/23","01:30",0.0,9.0,93.4,1018.5,295.8,1.0,1.7,313.6,0.00,8.0,15.6,"01:27:52",1
"23/10/23","01:40",0.0,9.0,93.6,1018.2,305.2,1.8,2.6,322.5,0.00,8.1,15.6,"01:39:04",1
"23/10/23","01:50",0.0,9.0,93.8,1018.0,308.5,1.8,2.5,322.7,0.00,8.1,15.5,"01:40:40",1
"23/10/23","02:00",0.0,9.0,93.9,1018.0,288.1,1.5,2.1,320.5,0.00,8.1,15.4,"01:58:48",1
"23/10/23","02:10",0.0,9.4,94.1,1018.0,294.5,1.5,2.5,295.4,0.00,8.5,15.2,"02:02:16",1
"23/10/23","02:20",0.0,9.7,94.2,1018.2,296.6,1.3,2.4,308.8,0.00,8.9,15.3,"02:17:36",1
"23/10/23","02:30",0.0,9.9,94.2,1017.8,306.1,2.0,2.4,316.7,0.00,9.1,15.4,"02:21:04",1
"23/10/23","02:40",0.0,9.8,94.2,1018.0,304.3,1.8,2.2,309.0,0.00,9.0,15.4,"02:31:36",1
"23/10/23","02:50",0.0,9.8,94.3,1017.5,301.8,1.7,2.4,309.8,0.00,9.0,15.5,"02:41:52",1
"23/10/23","03:00",0.0,9.8,94.4,1018.0,311.3,2.1,2.6,310.6,0.00,9.0,15.0,"02:54:00",1
"23/10/23","03:10",0.0,9.8,94.5,1018.0,300.0,1.7,2.4,298.6,0.00,9.0,15.2,"03:01:28",1
"23/10/23","03:20",0.0,9.9,94.7,1017.8,305.6,2.0,3.3,324.5,0.00,9.1,15.2,"03:19:52",1
"23/10/23","03:30",0.0,10.3,94.5,1018.0,325.4,2.1,3.7,312.2,0.00,9.5,15.0,"03:21:20",1
"23/10/23","03:40",0.0,10.2,94.4,1018.2,307.4,1.7,2.2,302.8,0.00,9.4,15.1,"03:34:16",1
"23/10/23","03:50",0.0,9.9,94.5,1018.2,301.1,1.6,1.9,320.6,0.00,9.1,15.3,"03:41:52",1
"23/10/23","04:00",0.0,9.5,94.6,1018.5,286.3,1.5,1.6,272.2,0.00,8.7,15.0,"03:55:12",1
"23/10/23","04:10",0.0,9.5,94.7,1018.5,315.4,1.8,2.4,312.3,0.00,8.7,15.2,"04:02:32",1
"23/10/23","04:20",0.0,9.4,94.7,1018.7,307.4,1.5,2.5,307.6,0.00,8.6,15.1,"04:18:16",1
"23/10/23","04:30",0.0,9.3,94.9,1018.5,311.1,1.8,2.6,318.9,0.00,8.6,15.0,"04:27:12",1
"23/10/23","04:40",0.0,9.5,94.9,1018.7,307.1,2.0,2.6,309.2,0.00,8.8,15.2,"04:39:12",1
"23/10/23","04:50",0.0,9.7,94.9,1018.7,297.3,1.8,2.9,321.9,0.00,9.0,15.3,"04:45:20",1
"23/10/23","05:00",0.0,9.8,95.0,1018.5,295.6,2.0,2.6,311.1,0.00,9.1,15.1,"04:58:40",1
"23/10/23","05:10",0.0,9.8,94.9,1019.0,290.8,1.5,2.4,309.1,0.00,9.1,14.9,"05:03:36",1
"23/10/23","05:20",0.0,9.6,94.9,1018.7,297.2,1.6,2.2,322.0,0.00,8.9,15.0,"05:17:44",1
"23/10/23","05:30",0.0,9.3,95.0,1019.0,313.2,2.1,2.6,319.3,0.00,8.6,15.0,"05:29:12",1
"23/10/23","05:40",0.0,9.2,95.2,1019.0,318.4,2.1,2.8,323.8,0.00,8.5,15.0,"05:34:24",1
"23/10/23","05:50",0.0,8.9,95.3,1019.0,298.9,1.5,2.1,307.1,0.00,8.2,15.0,"05:40:08",1
"23/10/23","06:00",0.0,8.5,95.3,1019.2,295.4,1.5,1.8,306.4,0.00,7.8,14.9,"05:59:52",1
"23/10/23","06:10",0.0,8.5,95.5,1019.2,305.5,2.1,2.7,321.5,0.00,7.9,15.0,"06:04:56",1
"23/10/23","06:20",0.0,8.4,95.6,1019.0,301.5,2.0,2.5,317.9,0.00,7.8,14.9,"06:11:04",1
"23/10/23","06:30",0.0,8.5,95.7,1019.2,300.5,1.5,1.9,305.9,0.00,7.9,14.8,"06:29:20",1
"23/10/23","06:40",0.0,8.6,95.9,1019.2,294.1,1.7,1.9,303.8,0.00,8.0,14.7,"06:32:32",1
"23/10/23","06:50",0.0,9.3,96.0,1019.4,299.7,1.8,2.8,320.0,0.00,8.7,14.6,"06:48:48",1
"23/10/23","07:00",0.0,9.9,95.9,1019.2,295.7,1.7,2.4,316.0,0.01,9.3,14.6,"06:59:12",1
"23/10/23","07:10",0.0,10.5,95.8,1019.2,301.6,1.5,2.2,315.9,0.01,9.9,14.7,"07:01:12",1
"23/10/23","07:20",0.0,11.5,95.7,1019.7,295.3,0.5,0.8,289.4,0.02,10.9,14.6,"07:16:08",1
"23/10/23","07:30",0.0,11.8,95.4,1019.7,283.1,0.2,0.5,298.7,0.01,11.1,14.8,"07:20:16",1
"23/10/23","07:40",0.0,12.4,95.5,1019.9,305.2,0.5,1.0,317.6,0.05,11.7,14.9,"07:33:04",1
"23/10/23","07:50",0.0,12.9,95.4,1019.9,280.7,0.5,1.1,328.4,0.06,12.2,15.0,"07:43:58",1
"23/10/23","08:00",0.0,13.7,95.1,1020.4,301.4,0.5,1.4,333.2,0.11,13.0,14.6,"07:59:44",1
"23/10/23","08:10",0.0,13.5,94.1,1020.4,307.6,0.6,1.2,322.7,0.13,12.6,14.8,"08:00:08",1
"23/10/23","08:20",0.0,13.9,93.2,1020.6,241.4,0.5,0.9,238.7,0.15,12.9,14.9,"08:15:36",1
"23/10/23","08:30",0.0,14.1,91.8,1020.8,248.0,0.6,1.3,240.2,0.18,12.8,14.7,"08:23:20",1
"23/10/23","08:40",0.0,15.1,90.3,1020.8,269.1,0.8,1.6,246.6,0.21,13.6,14.9,"08:32:56",1
"23/10/23","08:50",0.0,15.6,86.4,1020.6,311.1,0.5,1.0,317.6,0.17,13.4,14.9,"08:47:44",1
"23/10/23","09:00",0.0,16.4,81.6,1019.9,253.3,0.5,1.4,326.3,0.23,13.3,15.0,"08:50:24",1
"23/10/23","09:10",0.0,16.5,76.6,1020.1,233.6,0.6,1.3,223.6,0.17,12.4,15.0,"09:02:56",1
"23/10/23","09:20",0.0,17.2,73.9,1019.9,258.9,0.6,1.2,230.9,0.26,12.5,14.9,"09:17:12",1
"23/10/23","09:30",0.0,17.1,71.3,1019.4,284.3,0.6,1.7,343.1,0.12,11.9,15.2,"09:20:48",1
"23/10/23","09:40",0.0,17.8,70.7,1019.4,262.5,0.2,1.1,21.7,0.26,12.5,15.2,"09:38:56",1
"23/10/23","09:50",0.0,18.3,67.4,1019.2,190.8,1.0,2.7,129.1,0.30,12.2,15.1,"09:47:52",1
"23/10/23","10:00",0.0,18.8,66.6,1019.0,161.0,0.7,2.1,137.1,0.32,12.5,15.1,"09:52:16",1
"23/10/23","10:10",0.0,19.2,65.1,1019.0,188.6,0.8,1.9,226.6,0.37,12.5,15.3,"10:00:32",1
"23/10/23","10:20",0.0,19.6,63.2,1018.7,222.4,1.0,1.9,241.5,0.38,12.5,15.3,"10:14:56",1
"23/10/23","10:30",0.0,20.0,61.8,1018.2,225.7,0.8,2.1,236.7,0.39,12.5,15.5,"10:20:08",1
"23/10/23","10:40",0.0,20.6,61.2,1018.2,195.3,0.7,1.8,191.5,0.37,12.9,15.5,"10:33:36",1
"23/10/23","10:50",0.0,20.4,60.2,1018.0,189.9,1.0,2.5,230.5,0.36,12.5,15.4,"10:48:16",1
"23/10/23","11:00",0.0,20.7,60.8,1018.0,238.0,0.8,1.9,118.5,0.35,12.9,15.8,"10:58:08",1
"23/10/23","11:10",0.0,21.1,59.6,1017.3,287.3,0.6,1.6,132.1,0.34,13.0,15.9,"11:01:20",1
"23/10/23","11:20",0.0,21.5,57.8,1017.1,218.2,1.0,2.4,215.0,0.41,12.9,15.9,"11:12:40",1
"23/10/23","11:30",0.0,21.5,59.4,1017.1,191.6,1.5,3.3,221.4,0.42,13.3,16.0,"11:20:24",1
"23/10/23","11:40",0.0,22.4,58.1,1016.8,118.1,0.7,2.2,89.7,0.42,13.8,16.0,"11:34:32",1
"23/10/23","11:50",0.0,21.9,58.7,1016.6,203.3,1.5,4.0,227.5,0.42,13.5,16.2,"11:47:44",1
"23/10/23","12:00",0.0,22.5,58.9,1016.4,148.5,1.1,3.2,195.8,0.42,14.1,16.4,"11:53:20",1
"23/10/23","12:10",0.0,22.4,57.1,1016.1,189.4,1.5,3.5,229.2,0.42,13.5,16.6,"12:06:32",1
"23/10/23","12:20",0.0,22.9,55.9,1015.6,196.1,1.0,2.7,241.3,0.42,13.7,16.3,"12:19:28",1
"23/10/23","12:30",0.0,23.0,55.6,1015.6,234.1,1.3,4.1,230.2,0.41,13.7,16.3,"12:26:24",1
"23/10/23","12:40",0.0,22.8,56.2,1015.2,198.2,1.7,3.6,204.7,0.40,13.7,16.8,"12:32:08",1
"23/10/23","12:50",0.0,22.9,53.5,1014.9,208.7,1.3,3.4,226.2,0.33,13.0,16.7,"12:46:56",1
"23/10/23","13:00",0.0,21.9,57.6,1015.2,222.5,1.6,4.2,208.8,0.18,13.2,16.8,"12:55:12",1
"23/10/23","13:10",0.0,23.3,56.1,1014.7,187.6,1.3,2.6,228.6,0.38,14.1,16.8,"13:02:08",1
"23/10/23","13:20",0.0,23.3,54.6,1014.7,160.3,1.2,2.5,207.3,0.26,13.7,17.0,"13:14:40",1
"23/10/23","13:30",0.0,21.8,59.0,1014.7,191.0,1.3,2.9,199.4,0.10,13.5,17.0,"13:24:40",1
"23/10/23","13:40",0.0,23.0,55.6,1014.9,207.0,1.2,2.6,244.8,0.35,13.7,17.0,"13:31:36",1
"23/10/23","13:50",0.0,23.2,54.7,1014.7,212.4,1.3,2.8,202.6,0.26,13.6,17.2,"13:45:04",1
"23/10/23","14:00",0.0,22.9,54.4,1014.7,155.5,0.8,2.2,172.9,0.17,13.3,17.3,"13:54:40",1
"23/10/23","14:10",0.0,23.7,51.8,1014.5,196.4,1.2,3.1,220.0,0.29,13.3,17.4,"14:08:56",1
"23/10/23","14:20",0.0,23.7,51.6,1014.5,183.3,1.3,2.9,217.0,0.25,13.2,17.6,"14:17:28",1
"23/10/23","14:30",0.0,22.5,53.0,1014.5,178.6,1.2,2.9,124.8,0.06,12.5,17.4,"14:21:04",1
"23/10/23","14:40",0.0,23.3,52.8,1014.2,193.3,1.3,4.1,203.9,0.22,13.2,17.4,"14:36:16",1
"23/10/23","14:50",0.0,23.8,50.2,1014.2,176.4,1.2,3.7,206.2,0.20,12.9,17.7,"14:49:52",1
"23/10/23","15:00",0.0,23.8,50.5,1014.2,209.3,1.3,2.9,194.5,0.19,13.0,17.7,"14:50:16",1
"23/10/23","15:10",0.0,23.6,50.4,1014.2,212.9,1.6,3.1,170.7,0.17,12.7,17.7,"15:05:44",1
"23/10/23","15:20",0.0,23.8,49.8,1014.2,214.3,1.1,2.5,228.3,0.15,12.7,17.8,"15:18:48",1
"23/10/23","15:30",0.0,23.6,50.0,1014.0,207.4,1.6,3.2,237.6,0.13,12.6,17.5,"15:25:44",1
"23/10/23","15:40",0.0,23.1,51.3,1014.5,200.5,1.8,4.2,228.5,0.11,12.5,17.7,"15:30:48",1
"23/10/23","15:50",0.0,23.2,51.1,1014.0,204.3,1.2,2.4,187.2,0.09,12.6,17.7,"15:48:40",1
"23/10/23","16:00",0.0,22.8,51.8,1014.2,196.0,1.2,2.8,240.0,0.05,12.4,17.9,"15:54:48",1
"23/10/23","16:10",0.0,22.8,52.6,1014.0,213.9,1.3,3.1,240.2,0.05,12.7,17.7,"16:01:20",1
"23/10/23","16:20",0.0,22.8,52.6,1014.5,209.6,0.5,1.9,198.0,0.03,12.7,17.9,"16:17:20",1
"23/10/23","16:30",0.0,22.5,54.5,1014.5,212.7,1.0,2.8,227.4,0.02,12.9,17.8,"16:28:16",1
"23/10/23","16:40",0.0,21.5,57.2,1014.2,239.6,1.1,2.4,231.1,0.00,12.7,17.8,"16:36:08",1
"23/10/23","16:50",0.0,20.8,59.9,1014.5,268.0,1.0,2.2,250.4,0.00,12.8,17.8,"16:42:08",1
"23/10/23","17:00",0.0,20.0,62.8,1014.5,323.9,1.1,1.7,333.6,0.00,12.7,17.8,"16:52:56",1
"23/10/23","17:10",0.0,19.4,65.0,1014.7,320.7,1.0,1.7,328.7,0.00,12.7,17.8,"17:02:08",1
"23/10/23","17:20",0.0,18.7,67.8,1014.7,294.9,1.0,1.4,316.9,0.00,12.7,17.7,"17:16:56",1
"23/10/23","17:30",0.0,18.3,69.7,1015.2,292.7,1.2,2.1,317.7,0.00,12.7,17.7,"17:27:28",1
"23/10/23","17:40",0.0,17.9,70.8,1015.4,299.7,1.3,3.2,313.4,0.00,12.6,17.7,"17:39:04",1
"23/10/23","17:50",0.0,17.6,72.1,1015.6,303.4,1.6,2.8,309.1,0.00,12.6,17.6,"17:46:00",1
"23/10/23","18:00",0.0,17.5,73.0,1015.6,319.1,2.3,3.9,314.3,0.00,12.7,17.6,"17:55:12",1
"23/10/23","18:10",0.0,17.3,73.5,1015.6,306.0,1.8,3.3,314.9,0.00,12.6,17.7,"18:08:16",1
"23/10/23","18:20",0.0,17.1,74.1,1015.9,309.0,2.0,3.3,325.3,0.00,12.5,17.5,"18:12:32",1
"23/10/23","18:30",0.0,16.9,74.6,1015.9,316.7,1.7,3.5,308.9,0.00,12.4,17.6,"18:21:36",1
"23/10/23","18:40",0.0,16.5,75.4,1016.1,323.7,1.3,2.5,331.3,0.00,12.2,17.6,"18:34:04",1
"23/10/23","18:50",0.0,16.2,76.9,1016.1,312.4,1.5,2.0,283.8,0.00,12.2,17.3,"18:40:18",1
"23/10/23","19:00",0.0,16.0,78.2,1016.4,319.0,1.8,3.5,299.4,0.00,12.2,17.6,"18:51:36",1
"23/10/23","19:10",0.0,16.0,78.5,1016.4,313.6,2.0,2.9,334.1,0.00,12.3,17.3,"19:00:20",1
"23/10/23","19:20",0.0,15.7,78.7,1016.4,302.1,1.3,2.4,318.7,0.00,12.1,17.4,"19:11:50",1
"23/10/23","19:30",0.0,15.6,79.3,1016.1,296.9,1.5,2.5,312.7,0.00,12.1,17.3,"19:29:04",1
"23/10/23","19:40",0.0,15.1,79.9,1016.6,313.9,1.1,1.7,320.2,0.00,11.7,17.3,"19:36:06",1
"23/10/23","19:50",0.0,14.4,80.9,1016.8,292.6,1.0,1.4,304.2,0.00,11.2,17.1,"19:42:24",1
"23/10/23","20:00",0.0,14.4,82.3,1016.8,309.4,1.5,2.5,330.8,0.00,11.5,17.1,"19:56:24",1
"23/10/23","20:10",0.0,14.6,83.1,1016.6,317.1,1.7,3.6,333.7,0.00,11.8,17.2,"20:07:44",1
"23/10/23","20:20",0.0,15.0,82.8,1016.8,310.6,2.2,3.5,316.1,0.00,12.1,17.2,"20:15:38",1
"23/10/23","20:30",0.0,15.0,82.3,1016.6,306.3,2.0,3.3,311.9,0.00,12.1,17.2,"20:23:30",1
"23/10/23","20:40",0.0,14.7,82.2,1017.1,298.7,1.0,2.5,302.3,0.00,11.7,17.2,"20:31:54",1
"23/10/23","20:50",0.0,14.2,82.8,1017.3,292.4,1.1,1.8,313.5,0.00,11.4,16.9,"20:49:04",1
"23/10/23","21:00",0.0,14.0,83.9,1017.3,312.2,1.6,2.4,306.6,0.00,11.4,17.0,"20:59:06",1
"23/10/23","21:10",0.0,14.1,84.8,1016.6,305.3,1.8,2.6,333.2,0.00,11.6,16.9,"21:06:20",1
"23/10/23","21:20",0.0,14.2,84.9,1016.8,320.8,2.2,3.3,333.0,0.00,11.7,17.0,"21:13:40",1
"23/10/23","21:30",0.0,14.3,84.8,1017.1,322.0,2.1,3.3,338.0,0.00,11.8,17.0,"21:25:50",1
"23/10/23","21:40",0.0,14.3,84.7,1017.1,327.2,1.7,2.8,332.4,0.00,11.8,16.9,"21:36:00",1
"23/10/23","21:50",0.0,14.3,84.5,1017.1,330.3,2.0,2.7,339.9,0.00,11.8,17.0,"21:49:18",1
"23/10/23","22:00",0.0,14.2,84.6,1017.1,332.6,2.0,2.9,339.2,0.00,11.7,16.7,"21:55:16",1
"23/10/23","22:10",0.0,14.2,84.7,1016.8,322.8,2.1,2.9,314.0,0.00,11.7,16.7,"22:06:44",1
"23/10/23","22:20",0.0,14.2,84.8,1016.8,324.0,2.1,3.1,336.7,0.00,11.7,16.8,"22:19:14",1
"23/10/23","22:30",0.0,14.0,84.9,1017.1,319.4,1.8,3.1,322.5,0.00,11.5,16.8,"22:22:40",1
"23/10/23","22:40",0.0,13.8,85.4,1017.1,313.7,1.7,2.6,326.4,0.00,11.4,16.6,"22:34:10",1
"23/10/23","22:50",0.0,13.7,85.9,1017.1,312.9,2.0,3.2,336.6,0.00,11.4,16.7,"22:47:48",1
"23/10/23","23:00",0.0,13.6,86.2,1017.1,318.8,2.0,3.1,321.5,0.00,11.4,16.7,"22:56:02",1
"23/10/23","23:10",0.0,13.5,86.6,1016.8,331.3,1.7,2.5,356.0,0.00,11.4,16.8,"23:04:10",1
"23/10/23","23:20",0.0,13.6,87.0,1017.1,331.6,1.8,2.8,342.4,0.00,11.5,16.7,"23:12:28",1
"23/10/23","23:30",0.0,13.4,87.1,1017.1,324.0,1.6,2.9,320.9,0.00,11.3,16.7,"23:26:00",1
"23/10/23","23:40",0.0,13.2,87.4,1016.6,313.1,1.8,2.6,319.7,0.00,11.2,16.7,"23:36:38",1
"23/10/23","23:50",0.0,13.1,87.7,1016.8,311.2,1.8,2.7,311.6,0.00,11.1,16.6,"23:46:36",1
"23/10/23","24:00",0.0,13.1,88.0,1016.8,310.9,1.8,2.7,317.5,0.00,11.2,16.5,"23:50:48",1
